When you browse on this site, cookies collect data to enhance your experience and personalize the content and advertising you see.
Visit our Privacy Policy to learn more. By continuing to use the site, you agree to this use of cookies and data.
  • In Hungary
  • List of Countries
  • For 7 days
  • Water Temperature
  • Satellite Maps
  • Weather Map
  • News
  • Weather Widgets
  • user-avatar
    Login

    Hourly Weather Bogatynia

    Today, 21 January, Monday

    Time Temperature Precipitation Wind Pressure Humidity
    00:00 -5°C° 0 mm 0 mps 744 mmHg 69%
    01:00 -5°C° 0 mm 0 mps 745 mmHg 69%
    02:00 -5°C° 0 mm 0 mps 745 mmHg 68%
    03:00 -5°C° 0 mm 0 mps 744 mmHg 68%
    04:00 -5°C° 0 mm 0 mps 744 mmHg 68%
    05:00 -5°C° 0 mm 0 mps 744 mmHg 67%
    06:00 -5°C° 0 mm 0 mps 744 mmHg 67%
    07:00 -6°C° 0 mm 0 mps 745 mmHg 67%
    08:00 -5°C° 0 mm 0 mps 745 mmHg 63%
    09:00 -3°C° 0 mm 1 mps 745 mmHg 59%
    10:00 -2°C° 0 mm 1 mps 745 mmHg 55%
    11:00 -1°C° 0 mm 1 mps 745 mmHg 52%
    12:00 0°C° 0 mm 1 mps 744 mmHg 49%
    13:00 0°C° 0 mm 1 mps 745 mmHg 46%
    14:00 -1°C° 0 mm 1 mps 744 mmHg 48%
    15:00 -1°C° 0 mm 1 mps 744 mmHg 51%
    16:00 -1°C° 0 mm 1 mps 743 mmHg 54%
    17:00 -2°C° 0 mm 1 mps 743 mmHg 56%
    18:00 -3°C° 0 mm 1 mps 743 mmHg 58%
    19:00 -3°C° 0 mm 1 mps 743 mmHg 59%
    20:00 -3°C° 0 mm 1 mps 742 mmHg 59%
    21:00 -3°C° 0 mm 1 mps 742 mmHg 59%
    22:00 -6°C° 0 mm 2 mps 742 mmHg 59%
    23:00 -6°C° 0 mm 2 mps 742 mmHg 60%

    Tomorrow, 22 January, Tuesday

    Time Temperature Precipitation Wind Pressure Humidity
    00:00 -6°C° 0 mm 2 mps 741 mmHg 61%
    01:00 -6°C° 0 mm 2 mps 741 mmHg 61%
    02:00 -6°C° 0 mm 2 mps 741 mmHg 64%
    03:00 -6°C° 0 mm 2 mps 740 mmHg 67%
    04:00 -6°C° 0 mm 2 mps 740 mmHg 69%
    05:00 -6°C° 0 mm 2 mps 740 mmHg 71%
    06:00 -6°C° 0 mm 2 mps 739 mmHg 73%
    07:00 -7°C° 0 mm 2 mps 739 mmHg 75%
    08:00 -6°C° 0 mm 2 mps 739 mmHg 72%
    09:00 -5°C° 0 mm 2 mps 739 mmHg 70%
    10:00 -4°C° 0 mm 2 mps 739 mmHg 67%
    11:00 -4°C° 0 mm 2 mps 738 mmHg 64%
    12:00 -3°C° 0 mm 2 mps 738 mmHg 61%
    13:00 -2°C° 0 mm 2 mps 737 mmHg 59%
    14:00 -2°C° 0 mm 2 mps 736 mmHg 61%
    15:00 -3°C° 0 mm 2 mps 736 mmHg 63%
    16:00 -3°C° 0 mm 2 mps 735 mmHg 66%
    17:00 -4°C° 0 mm 2 mps 735 mmHg 67%
    18:00 -4°C° 0 mm 2 mps 735 mmHg 68%
    19:00 -5°C° 0 mm 2 mps 734 mmHg 70%
    20:00 -5°C° 0 mm 2 mps 734 mmHg 68%
    21:00 -5°C° 0 mm 2 mps 734 mmHg 66%
    22:00 -5°C° 0 mm 2 mps 733 mmHg 63%
    23:00 -6°C° 0 mm 2 mps 733 mmHg 65%

    Day after tomorrow, 23 January, Wednesday

    Time Temperature Precipitation Wind Pressure Humidity
    00:00 -6°C° 0 mm 2 mps 733 mmHg 66%
    01:00 -6°C° 0 mm 2 mps 733 mmHg 67%
    02:00 -6°C° 0 mm 2 mps 732 mmHg 67%
    03:00 -4°C° 0 mm 1 mps 732 mmHg 67%
    04:00 -4°C° 0 mm 1 mps 731 mmHg 67%
    05:00 -4°C° 0 mm 1 mps 731 mmHg 66%
    06:00 -4°C° 0 mm 1 mps 731 mmHg 65%
    07:00 -4°C° 0 mm 1 mps 731 mmHg 64%
    08:00 -4°C° 0 mm 1 mps 731 mmHg 60%
    09:00 -3°C° 0 mm 1 mps 731 mmHg 57%
    10:00 -2°C° 0 mm 1 mps 732 mmHg 53%
    11:00 -1°C° 0 mm 1 mps 731 mmHg 50%
    12:00 -2°C° 0 mm 2 mps 731 mmHg 48%
    13:00 -1°C° 0 mm 2 mps 731 mmHg 45%
    14:00 -2°C° 0 mm 2 mps 731 mmHg 50%
    15:00 -2°C° 0 mm 2 mps 731 mmHg 55%
    16:00 -4°C° 0 mm 3 mps 731 mmHg 60%
    17:00 -5°C° 0 mm 3 mps 732 mmHg 63%
    18:00 -5°C° 0 mm 3 mps 732 mmHg 67%
    19:00 -6°C° 0 mm 3 mps 732 mmHg 71%
    20:00 -5°C° 0 mm 2 mps 733 mmHg 72%
    21:00 -6°C° 0 mm 2 mps 733 mmHg 73%
    22:00 -6°C° 0 mm 2 mps 734 mmHg 74%
    23:00 -6°C° 0 mm 2 mps 734 mmHg 75%

    24 January, Thursday

    Time Temperature Precipitation Wind Pressure Humidity
    00:00 -6°C° 0 mm 2 mps 734 mmHg 75%
    01:00 -6°C° 0 mm 2 mps 735 mmHg 76%
    02:00 -7°C° 0 mm 2 mps 735 mmHg 76%
    03:00 -7°C° 0 mm 2 mps 735 mmHg 77%
    04:00 -7°C° 0 mm 2 mps 735 mmHg 77%
    05:00 -7°C° 0 mm 2 mps 736 mmHg 78%
    06:00 -6°C° 0 mm 1 mps 736 mmHg 78%
    07:00 -6°C° 0 mm 1 mps 737 mmHg 78%
    08:00 -4°C° 0 mm 1 mps 737 mmHg 74%
    09:00 -4°C° 0 mm 1 mps 738 mmHg 70%
    10:00 -3°C° 0 mm 1 mps 738 mmHg 65%
    11:00 -2°C° 0 mm 1 mps 738 mmHg 61%
    12:00 -1°C° 0 mm 1 mps 739 mmHg 58%
    13:00 0°C° 0 mm 1 mps 739 mmHg 54%
    14:00 0°C° 0 mm 1 mps 739 mmHg 58%
    15:00 -3°C° 0 mm 2 mps 739 mmHg 62%
    16:00 -3°C° 0 mm 2 mps 739 mmHg 65%
    17:00 -2°C° 0 mm 1 mps 739 mmHg 69%
    18:00 -3°C° 0 mm 1 mps 740 mmHg 72%
    19:00 -3°C° 0 mm 1 mps 740 mmHg 76%
    20:00 -4°C° 0 mm 1 mps 740 mmHg 76%
    21:00 -4°C° 0 mm 1 mps 740 mmHg 76%
    22:00 -5°C° 0 mm 0 mps 741 mmHg 76%
    23:00 -5°C° 0 mm 0 mps 741 mmHg 77%

    25 January, Friday

    Time Temperature Precipitation Wind Pressure Humidity
    00:00 -5°C° 0 mm 0 mps 741 mmHg 78%
    01:00 -4°C° 0 mm 1 mps 741 mmHg 79%
    02:00 -6°C° 0 mm 1 mps 741 mmHg 80%
    03:00 -6°C° 0 mm 1 mps 740 mmHg 81%
    04:00 -6°C° 0 mm 1 mps 740 mmHg 83%
    05:00 -6°C° 0 mm 1 mps 740 mmHg 84%
    06:00 -6°C° 0 mm 1 mps 741 mmHg 85%
    07:00 -7°C° 0 mm 1 mps 741 mmHg 85%
    08:00 -6°C° 0 mm 1 mps 741 mmHg 81%
    09:00 -4°C° 0 mm 1 mps 741 mmHg 77%
    10:00 -3°C° 0 mm 1 mps 741 mmHg 72%
    11:00 -2°C° 0 mm 1 mps 741 mmHg 67%
    12:00 -2°C° 0 mm 1 mps 741 mmHg 62%
    13:00 -1°C° 0 mm 1 mps 741 mmHg 58%
    14:00 -1°C° 0 mm 1 mps 741 mmHg 58%
    15:00 -1°C° 0 mm 1 mps 740 mmHg 59%
    16:00 -2°C° 0 mm 1 mps 740 mmHg 60%
    17:00 -2°C° 0 mm 1 mps 740 mmHg 62%
    18:00 -3°C° 0 mm 1 mps 740 mmHg 64%
    19:00 -5°C° 0 mm 2 mps 740 mmHg 66%
    20:00 -5°C° 0 mm 2 mps 740 mmHg 64%
    21:00 -5°C° 0 mm 2 mps 739 mmHg 62%
    22:00 -6°C° 0 mm 3 mps 739 mmHg 61%
    23:00 -6°C° 0 mm 3 mps 739 mmHg 63%

    26 January, Saturday

    Time Temperature Precipitation Wind Pressure Humidity
    00:00 -6°C° 0 mm 3 mps 738 mmHg 65%
    01:00 -7°C° 0 mm 4 mps 738 mmHg 67%
    02:00 -5°C° 0 mm 4 mps 737 mmHg 70%
    03:00 -5°C° 0 mm 4 mps 737 mmHg 73%
    04:00 -5°C° 0 mm 4 mps 736 mmHg 76%
    05:00 -5°C° 0.1 mm 4 mps 736 mmHg 79%
    06:00 -4°C° 0.1 mm 4 mps 735 mmHg 82%
    07:00 -4°C° 0.1 mm 4 mps 735 mmHg 85%
    08:00 -3°C° 0.1 mm 4 mps 735 mmHg 85%
    09:00 -4°C° 0.1 mm 5 mps 734 mmHg 85%
    10:00 -2°C° 0.1 mm 5 mps 734 mmHg 85%
    11:00 -1°C° 0.4 mm 5 mps 733 mmHg 86%
    12:00 -1°C° 0.4 mm 5 mps 733 mmHg 87%
    13:00 0°C° 0.4 mm 5 mps 732 mmHg 88%
    14:00 0°C° 0.2 mm 4 mps 732 mmHg 89%
    15:00 0°C° 0.2 mm 4 mps 731 mmHg 90%
    16:00 0°C° 0.2 mm 4 mps 731 mmHg 91%
    17:00 +1°C° 0.4 mm 4 mps 730 mmHg 91%
    18:00 +1°C° 0.4 mm 4 mps 730 mmHg 91%
    19:00 +1°C° 0.4 mm 4 mps 729 mmHg 91%
    20:00 +1°C° 0.6 mm 5 mps 729 mmHg 91%
    21:00 +1°C° 0.6 mm 5 mps 728 mmHg 91%
    22:00 +1°C° 0.6 mm 5 mps 728 mmHg 91%
    23:00 +1°C° 1.2 mm 5 mps 728 mmHg 91%
    Show more